Regional Weather Roundup
Issued by NWS Boston, MA

Current Version | Previous Version | Text Only | Print | Product List | Glossary Off
Versions: 1 2 3 4 5 6 7 8 9 10 11 12 13 14 15 16 17 18 19 20 21 22 23 24 25 26 27 28 29 30 31 32 33 34 35 36 37 38 39 40 41 42 43 44 45 46 47 48 49 50
190 ASUS41 KBOX 152310 RWRBOX REGIONAL WEATHER ROUNDUP NATIONAL WEATHER SERVICE TAUNTON MA 700 PM EDT TUE AUG 15 2017 NOTE: "FAIR" INDICATES FEW OR NO CLOUDS BELOW 12,000 FEET WITH NO SIGNIFICANT WEATHER AND/OR OBSTRUCTIONS TO VISIBILITY. MAZALL-160000- EASTERN MASSACHUSETTS CITY SKY/WX TMP DP RH WIND PRES REMARKS BOSTON CLOUDY 73 62 68 S15 29.88S BEVERLY MOCLDY 75 63 66 S7 29.87S LAWRENCE CLOUDY 77 67 71 VRB5 29.89S BEDFORD CLOUDY 73 61 65 S9 29.87R BLUE HILL N/A 70 60 70 S12G21 29.91R NORWOOD CLOUDY 73 64 73 S8 29.89R MARSHFIELD CLOUDY 72 64 78 SW8G17 29.90S PLYMOUTH CLOUDY 70 63 78 SW6 29.92S TAUNTON CLOUDY 70 64 81 S6 29.91S NEW BEDFORD CLOUDY 69 65 86 SW7 29.92R $$ MAZALL-160000- CAPE COD AND THE ISLANDS CITY SKY/WX TMP DP RH WIND PRES REMARKS FALMOUTH CLOUDY 68 64 88 SW9 29.94S HYANNIS LGT RAIN 68 64 87 S8 29.91S CHATHAM LGT RAIN 68 67 96 S8 29.93S PROVINCETOWN CLOUDY 70 66 87 SW10 29.92R NANTUCKET CLOUDY 66 64 93 CALM 29.93S MARTHAS VNYRD LGT RAIN 68 65 90 S6 29.93R $$ MAZALL-160000- CENTRAL AND WESTERN MASSACHUSETTS CITY SKY/WX TMP DP RH WIND PRES REMARKS WORCESTER MOCLDY 69 62 78 S9 29.92S FITCHBURG CLOUDY 76 66 71 VRB6 29.88S ORANGE CLOUDY 73 67 81 S9 29.88R SPRINGFIELD MOCLDY 73 65 76 S7 29.88R WESTFIELD CLOUDY 73 68 84 S6 29.88R NORTH ADAMS CLOUDY 74 66 76 W3 29.88R PITTSFIELD MOCLDY 71 64 78 SW6 29.90R $$ RIZALL-160000- RHODE ISLAND CITY SKY/WX TMP DP RH WIND PRES REMARKS PROVIDENCE CLOUDY 71 67 87 S8 29.92S NEWPORT LGT RAIN 70 69 97 S8 29.93R BLOCK ISLAND CLOUDY 70 68 93 S5 29.93R WESTERLY CLOUDY 71 66 84 S6 29.93S $$ CTZALL-160000- CONNECTICUT CITY SKY/WX TMP DP RH WIND PRES REMARKS BRADLEY INTL CLOUDY 74 67 78 S10 29.89S HARTFORD CLOUDY 75 67 76 S9 29.90R BRIDGEPORT CLOUDY 73 69 87 S7 29.91R DANBURY CLOUDY 73 68 84 S7 29.92R GROTON CLOUDY 70 67 90 S3 29.92R NEW HAVEN CLOUDY 72 68 87 S7 29.91S CHESTER NOT AVBL MERIDEN CLOUDY 71 67 87 S7 29.91R WILLIMANTIC CLOUDY 72 67 84 S6 29.92R OXFORD CLOUDY 71 67 87 S7 29.93R $$ MEZ002-015-021-024-NHZ003-005-008-011-012-014-VTZ005-008-160000- NORTHERN NEW ENGLAND CITY SKY/WX TMP DP RH WIND PRES REMARKS PORTLAND ME CLOUDY 70 64 81 S12G23 29.85S BANGOR ME CLOUDY 70 63 78 S14 29.85F CONCORD NH CLOUDY 74 67 78 S9 29.86S MANCHESTER NH CLOUDY 75 64 68 S7 29.85S NASHUA NH CLOUDY 74 68 81 SE3 29.87S PORTSMOUTH NH CLOUDY 74 66 75 S6 29.85R JAFFREY NH CLOUDY 72 67 84 S6 29.90R KEENE NH N/A N/A N/A N/A MISG N/A BURLINGTON VT TSTM 73 69 87 SW10 29.83R FOG MT. WASHINGTON FOG 52 52 100 W32 N/A VSB 1/16 $$ NYZ052-076-160000- EASTERN NEW YORK CITY SKY/WX TMP DP RH WIND PRES REMARKS ALBANY MOCLDY 77 66 68 S5 29.86R NEW YORK CITY LGT RAIN 73 72 96 S9 29.89S $$ ANZALL-160000- MARINE OBSERVATIONS STATION/POSITION TIME TEMP WIND PRES VSBY WAVE AIR SEA DIR/SP/G HT/PER (UTC) (F) (DEG/KT/KT) (MB) (MI) (FT/S) BOSTON BUOY 2150 71 67 180/ 10/ 12 1011.3 2/ 7 BUZZARDS BAY 2200 69 170/ 11/ 12 1013.4R NANTUCKET SOUND 2150 70 71 180/ 10/ 12 1013.2 1/10 MASS BAY-STELLWA 2204 71 68 190/ 12/ 14 1010.7S 2/ 8 ISLE OF SHOALS 2200 70 170/ 14/ 15 1010.9S S OF BLOCK IS 2243 70 N/A 4/ 9 $$ ......................KEY......................... SKY/WX - SKY CONDITION/PRESENT WEATHER TMP - TEMPERATURE IN FAHRENHEIT DWPT - DEWPOINT IN FAHRENHEIT RH - RELATIVE HUMIDITY IN PERCENT WIND - DIRECTION AND SPEED IN MPH PRES - MEAN SEA LEVEL PRESSURE IN INCHES OF HG WCI - WIND CHILL INDEX VSB - VISIBILITY IN MILES HX - HEAT INDEX TC - TEMPERATURE IN CELSIUS VRB - VARIABLE WIND DIRECTION N/A - NOT AVAILABLE

USA.gov is the U.S. government's official web portal to all federal, state and local government web resources and services.